AXB1168 VOBL-VOMM

Flight info

Callsign AXB1168
Flight time 0h 27m
Altitude 19000
Route BIA W116 MMV
Aircraft B772/H-SDE2E3FGHIJ5LORVWXY/LB1D1

Departure

Time 2026-05-06 16:14
Airport Kempegowda International Airport Bengaluru (VOBL)

Arrival

Time 2026-05-06 16:42
Airport Chennai International Airport (VOMM)
Time Latitude Longitude Altitude Speed Heading
2026-05-06 15:54 13.19863 77.72022 3016 ft 0 kts 270°
2026-05-06 16:01 13.19863 77.72035 3018 ft 4 kts 274°
2026-05-06 16:01 13.19860 77.72063 3021 ft 4 kts 284°
2026-05-06 16:01 13.19850 77.72088 3022 ft 4 kts 303°
2026-05-06 16:01 13.19833 77.72107 3021 ft 4 kts 341°
2026-05-06 16:02 13.19820 77.72110 3023 ft 1 kts
2026-05-06 16:02 13.19818 77.72110 3023 ft 0 kts
2026-05-06 16:05 13.19889 77.72110 3016 ft 16 kts
2026-05-06 16:05 13.20003 77.72111 3016 ft 16 kts
2026-05-06 16:05 13.20116 77.72112 3016 ft 16 kts
2026-05-06 16:06 13.20229 77.72114 3016 ft 16 kts
2026-05-06 16:06 13.20343 77.72115 3016 ft 16 kts
2026-05-06 16:06 13.20455 77.72114 3016 ft 16 kts 359°
2026-05-06 16:06 13.20519 77.72036 3016 ft 16 kts 273°
2026-05-06 16:07 13.20519 77.71919 3016 ft 16 kts 269°
2026-05-06 16:07 13.20518 77.71802 3016 ft 16 kts 271°
2026-05-06 16:07 13.20522 77.71671 3016 ft 22 kts 271°
2026-05-06 16:07 13.20523 77.71522 3016 ft 21 kts 270°
2026-05-06 16:08 13.20524 77.71402 3015 ft 16 kts 270°
2026-05-06 16:08 13.20525 77.71287 3015 ft 16 kts 270°
2026-05-06 16:08 13.20526 77.71171 3015 ft 18 kts 271°
2026-05-06 16:08 13.20529 77.70988 3015 ft 31 kts 271°
2026-05-06 16:09 13.20530 77.70801 3015 ft 19 kts 270°
2026-05-06 16:09 13.20531 77.70667 3016 ft 19 kts 270°
2026-05-06 16:09 13.20532 77.70531 3016 ft 19 kts 270°
2026-05-06 16:09 13.20533 77.70399 3016 ft 19 kts 270°
2026-05-06 16:10 13.20535 77.70253 3016 ft 24 kts 271°
2026-05-06 16:10 13.20536 77.70064 3016 ft 28 kts 270°
2026-05-06 16:10 13.20537 77.69875 3016 ft 22 kts 270°
2026-05-06 16:10 13.20539 77.69736 3016 ft 19 kts 270°
2026-05-06 16:11 13.20540 77.69601 3016 ft 19 kts 270°
2026-05-06 16:11 13.20541 77.69465 3015 ft 21 kts 271°
2026-05-06 16:11 13.20542 77.69327 3015 ft 17 kts 270°
2026-05-06 16:11 13.20543 77.69247 3015 ft 10 kts 273°
2026-05-06 16:12 13.20581 77.69206 3016 ft 0 kts 358°
2026-05-06 16:12 13.20590 77.69206 3016 ft 0 kts 358°
2026-05-06 16:13 13.20622 77.69205 3016 ft 12 kts 358°
2026-05-06 16:13 13.20703 77.69243 3016 ft 13 kts 62°
2026-05-06 16:13 13.20712 77.69473 3016 ft 63 kts 90°
2026-05-06 16:13 13.20706 77.70206 3016 ft 141 kts 90°
2026-05-06 16:14 13.20716 77.71393 3425 ft 175 kts 92°
2026-05-06 16:14 13.20706 77.72604 4612 ft 162 kts 95°
2026-05-06 16:14 13.20546 77.73804 5107 ft 180 kts 101°
2026-05-06 16:14 13.20299 77.75159 5313 ft 207 kts 101°
2026-05-06 16:15 13.20016 77.76707 5507 ft 233 kts 101°
2026-05-06 16:15 13.19703 77.78440 5786 ft 258 kts 100°
2026-05-06 16:15 13.19372 77.80299 6395 ft 270 kts 100°
2026-05-06 16:15 13.19034 77.82219 7091 ft 277 kts 99°
2026-05-06 16:16 13.18696 77.84146 7923 ft 279 kts 99°
2026-05-06 16:16 13.18347 77.86147 8772 ft 283 kts 99°
2026-05-06 16:16 13.17998 77.88156 9579 ft 288 kts 98°
2026-05-06 16:16 13.17649 77.90173 10306 ft 296 kts 98°
2026-05-06 16:17 13.17276 77.92341 10603 ft 323 kts 98°
2026-05-06 16:17 13.16868 77.94721 10828 ft 355 kts 98°
2026-05-06 16:17 13.16423 77.97304 11366 ft 374 kts 99°
2026-05-06 16:17 13.15962 77.99967 12280 ft 384 kts 99°
2026-05-06 16:18 13.15652 78.01759 12973 ft 389 kts 99°
2026-05-06 16:18 13.15172 78.04530 14019 ft 396 kts 99°
2026-05-06 16:18 13.14685 78.07334 14944 ft 404 kts 99°
2026-05-06 16:18 13.14020 78.11170 16251 ft 411 kts 99°
2026-05-06 16:19 13.13688 78.13085 16945 ft 413 kts 99°
2026-05-06 16:19 13.13183 78.15998 18004 ft 415 kts 99°
2026-05-06 16:19 13.12674 78.18930 18744 ft 420 kts 99°
2026-05-06 16:19 13.12159 78.21897 18990 ft 428 kts 100°
2026-05-06 16:20 13.11622 78.24993 18987 ft 453 kts 100°
2026-05-06 16:20 13.11061 78.28217 18982 ft 461 kts 100°
2026-05-06 16:20 13.10497 78.31463 18973 ft 462 kts 100°
2026-05-06 16:20 13.09932 78.34708 18967 ft 461 kts 100°
2026-05-06 16:21 13.09369 78.37939 18962 ft 461 kts 100°
2026-05-06 16:21 13.08803 78.41186 18954 ft 461 kts 100°
2026-05-06 16:21 13.08241 78.44410 18954 ft 460 kts 100°
2026-05-06 16:21 13.07685 78.47593 18954 ft 460 kts 100°
2026-05-06 16:22 13.07119 78.50836 18953 ft 460 kts 100°
2026-05-06 16:22 13.06555 78.54062 18952 ft 460 kts 100°
2026-05-06 16:22 13.05991 78.57287 18948 ft 460 kts 100°
2026-05-06 16:22 13.05423 78.60528 18944 ft 461 kts 100°
2026-05-06 16:23 13.04858 78.63757 18939 ft 461 kts 100°
2026-05-06 16:23 13.04290 78.66997 18943 ft 461 kts 100°
2026-05-06 16:23 13.03721 78.70238 18935 ft 462 kts 100°
2026-05-06 16:23 13.03202 78.73479 18928 ft 462 kts 97°
2026-05-06 16:24 13.02837 78.76762 18924 ft 462 kts 95°
2026-05-06 16:24 13.02542 78.80029 18925 ft 461 kts 95°
2026-05-06 16:24 13.02267 78.83315 18926 ft 461 kts 94°
2026-05-06 16:24 13.01989 78.86595 18920 ft 461 kts 95°
2026-05-06 16:25 13.01702 78.89870 18918 ft 460 kts 95°
2026-05-06 16:25 13.01410 78.93082 18716 ft 447 kts 95°
2026-05-06 16:25 13.01115 78.96232 18245 ft 440 kts 95°
2026-05-06 16:25 13.00819 78.99337 17690 ft 436 kts 95°
2026-05-06 16:26 13.00524 79.02415 17136 ft 432 kts 95°
2026-05-06 16:26 13.00235 79.05415 16599 ft 424 kts 95°
2026-05-06 16:26 12.99947 79.08403 16059 ft 418 kts 95°
2026-05-06 16:26 12.99662 79.11345 15530 ft 412 kts 95°
2026-05-06 16:27 12.99382 79.14246 15011 ft 406 kts 95°
2026-05-06 16:27 12.99105 79.17117 14499 ft 401 kts 95°
2026-05-06 16:27 12.98832 79.19946 14009 ft 396 kts 95°
2026-05-06 16:27 12.98563 79.22740 13488 ft 392 kts 95°
2026-05-06 16:28 12.98295 79.25508 12932 ft 388 kts 95°
2026-05-06 16:28 12.98029 79.28245 12385 ft 383 kts 95°
2026-05-06 16:28 12.97766 79.30952 11848 ft 379 kts 95°
2026-05-06 16:28 12.97507 79.33628 11319 ft 375 kts 95°
2026-05-06 16:29 12.97249 79.36276 10799 ft 371 kts 95°
2026-05-06 16:29 12.96994 79.38896 10370 ft 365 kts 94°
2026-05-06 16:29 12.96746 79.41431 10269 ft 349 kts 94°
2026-05-06 16:29 12.96510 79.43848 10216 ft 332 kts 94°
2026-05-06 16:30 12.96285 79.46151 10177 ft 316 kts 94°
2026-05-06 16:30 12.96142 79.47612 10133 ft 307 kts 94°
2026-05-06 16:30 12.95866 79.50429 10067 ft 289 kts 94°
2026-05-06 16:30 12.95668 79.52460 9803 ft 284 kts 94°
2026-05-06 16:31 12.95451 79.54466 9455 ft 283 kts 96°
2026-05-06 16:31 12.95123 79.56458 9106 ft 282 kts 98°
2026-05-06 16:31 12.94775 79.58409 8764 ft 281 kts 99°
2026-05-06 16:31 12.94424 79.60373 8419 ft 280 kts 99°
2026-05-06 16:32 12.94073 79.62341 8082 ft 279 kts 99°
2026-05-06 16:32 12.93727 79.64299 7754 ft 279 kts 99°
2026-05-06 16:32 12.93384 79.66252 7418 ft 278 kts 99°
2026-05-06 16:32 12.93044 79.68204 7090 ft 278 kts 99°
2026-05-06 16:33 12.92708 79.70149 6772 ft 277 kts 99°
2026-05-06 16:33 12.92375 79.72094 6442 ft 276 kts 99°
2026-05-06 16:33 12.92045 79.74039 6282 ft 276 kts 99°
2026-05-06 16:34 12.91420 79.77773 6202 ft 254 kts 99°
2026-05-06 16:34 12.91125 79.79528 6075 ft 248 kts 99°
2026-05-06 16:34 12.90832 79.81271 5776 ft 248 kts 99°
2026-05-06 16:34 12.90541 79.83010 5483 ft 248 kts 99°
2026-05-06 16:35 12.90251 79.84753 5227 ft 247 kts 99°
2026-05-06 16:35 12.89971 79.86457 4965 ft 246 kts 99°
2026-05-06 16:35 12.89689 79.88182 4842 ft 242 kts 99°
2026-05-06 16:35 12.89427 79.89848 4779 ft 229 kts 95°
2026-05-06 16:36 12.89597 79.91426 4608 ft 220 kts 73°
2026-05-06 16:36 12.90074 79.92884 4476 ft 212 kts 71°
2026-05-06 16:36 12.90574 79.94306 4160 ft 212 kts 70°
2026-05-06 16:36 12.91096 79.95725 3866 ft 213 kts 70°
2026-05-06 16:37 12.91627 79.97147 3583 ft 213 kts 70°
2026-05-06 16:37 12.92156 79.98562 3311 ft 213 kts 70°
2026-05-06 16:37 12.92684 79.99974 3038 ft 211 kts 70°
2026-05-06 16:37 12.93210 80.01378 2770 ft 210 kts 71°
2026-05-06 16:38 12.93724 80.02751 2504 ft 200 kts 71°
2026-05-06 16:38 12.94192 80.04003 2260 ft 182 kts 71°
2026-05-06 16:38 12.94634 80.05180 2039 ft 167 kts 72°
2026-05-06 16:38 12.95030 80.06241 1820 ft 154 kts 72°
2026-05-06 16:39 12.95395 80.07218 1637 ft 139 kts 72°
2026-05-06 16:39 12.95728 80.08108 1505 ft 135 kts 72°
2026-05-06 16:39 12.96065 80.09017 1315 ft 136 kts 73°
2026-05-06 16:39 12.96398 80.09908 1137 ft 132 kts 72°
2026-05-06 16:40 12.96727 80.10783 972 ft 132 kts 72°
2026-05-06 16:40 12.97056 80.11665 802 ft 133 kts 73°
2026-05-06 16:40 12.97388 80.12557 668 ft 135 kts 72°
2026-05-06 16:40 12.97735 80.13471 466 ft 138 kts 71°
2026-05-06 16:41 12.98076 80.14396 274 ft 140 kts 71°
2026-05-06 16:41 12.98429 80.15333 102 ft 143 kts 72°
2026-05-06 16:41 12.98768 80.16235 55 ft 122 kts 68°
2026-05-06 16:41 12.99016 80.16899 55 ft 78 kts 69°
2026-05-06 16:42 12.99101 80.17176 49 ft 12 kts 125°
2026-05-06 16:42 12.99032 80.17222 51 ft 12 kts 155°
2026-05-06 16:42 12.98955 80.17218 55 ft 12 kts 215°
2026-05-06 16:42 12.98912 80.17146 53 ft 12 kts 249°
2026-05-06 16:43 12.98881 80.17065 55 ft 13 kts 249°
2026-05-06 16:43 12.98843 80.16964 52 ft 17 kts 248°
2026-05-06 16:43 12.98795 80.16838 54 ft 21 kts 249°
2026-05-06 16:43 12.98740 80.16694 51 ft 21 kts 249°
2026-05-06 16:44 12.98688 80.16553 51 ft 21 kts 249°
2026-05-06 16:44 12.98635 80.16413 56 ft 21 kts 249°
2026-05-06 16:44 12.98584 80.16277 55 ft 19 kts 249°
2026-05-06 16:44 12.98537 80.16158 53 ft 18 kts 236°
2026-05-06 16:45 12.98426 80.16160 52 ft 14 kts 157°
2026-05-06 16:45 12.98368 80.16220 53 ft 10 kts 139°
2026-05-06 16:45 12.98333 80.16237 51 ft 5 kts 158°
2026-05-06 16:45 12.98329 80.16239 52 ft 1 kts 158°
2026-05-06 16:46 12.98327 80.16240 52 ft 0 kts 158°